TITAN 3C TRANSTAGE R/B, 1863

Orbit data source: Space-Track

TITAN 3C TRANSTAGE R/B, 1863 is space debris in HEO originally from a launch on Tue, 21 Dec 1965 UTC launched from the Air Force Eastern Test Range (AFETR). Debris objects in space refer to the collection of defunct objects orbiting the Earth. Examples of debris include non-operational satellites, rocket bodies, and fragments generated from explosions, collisions, or faulty payload assembly.

Loading next visibility...
Identifier
1863, 1965-108A
Orbit
HEO
Country
Flag of USUS
Related business
Manufacturer
Martin Marietta
Mission
Spacecraft
Bus & Motor
TRANSTAGE, Unknown motor
Mass
~2,050 kg wet, 1,950 kg dry
Launch date (UTC)
1965-12-21 (60 years ago)
Launch vehicle
Unknown
Launch site
Air Force Eastern Test Range (AFETR)
Object type
Payload
Rocket body
Debris
Shape & HBR
Unknown
Radar Cross Section
Large (>1 m²)

Expand to show TLE details & history
Last TLE update: 16 hours ago

TLE from 16 hours ago
0 TITAN 3C TRANSTAGE R/B
1  1863U 65108A   26126.27288309  .00001962  00000-0  88950-3 0  9995
2  1863  26.7158 250.5711 5995534  65.4820 344.3569  4.00202539366683
Epoch: 2026-05-06T06:32Z
TLE epoch observation values (Epoch: 2026-05-06T06:32:57.098Z)
Latitude
-0.00001°
Longitude
-71.80819°
Altitude
2,221.302 km
Speed
8.302 km/s
True Right ascension
16h 42m 15s
True Declination
0° 00' 00"
Sunlit
Object was in full shadow at epoch
Visualization orbit readout
Latitude
Unknown
Longitude
Unknown
Altitude
Unknown
Speed
Unknown
Apparent Right ascension
Unknown
Apparent Declination
Unknown
Sunlit
N/A
Visualization observer readout
Local Sidereal Time
06:38:43
Azimuth
Unknown
Elevation
Unknown
Doppler factor
Unknown
Orbital elements
Apogee altitude
20,432.484 km
Perigee altitude
333.875 km
Semi-major axis
16,761.317 km
Eccentricity
0.59955
Inclination
26.7158°
RAAN
250.5711°
Arg. of periapsis
65.482°
True anomaly
294.50275°
Mean anomaly
344.3569°
Eccentric anomaly
324.32176°
Mean motion
1.00019 °/min
Orbital period
359.93 mins
BSTAR
0.0008895
Loading maneuver chart data...
Computing Atmospheric mass density...

Documentation

Showing up to 5 results
|